TimeMST,TemperatureF,Dew PointF,Humidity,Sea Level PressureIn,VisibilityMPH,Wind Direction,Wind SpeedMPH,Gust SpeedMPH,PrecipitationIn,Events,Conditions,WindDirDegrees,DateUTC
12:51 AM,73.0,45.0,37,29.89,10.0,Calm,Calm,-,N/A,,Clear,0,2013-10-14 07:51:00
1:51 AM,70.0,44.1,39,29.91,10.0,East,4.6,-,N/A,,Clear,80,2013-10-14 08:51:00
2:51 AM,68.0,45.0,43,29.90,10.0,Calm,Calm,-,N/A,,Clear,0,2013-10-14 09:51:00
3:51 AM,64.9,42.1,43,29.91,10.0,ENE,3.5,-,N/A,,Clear,70,2013-10-14 10:51:00
4:51 AM,64.0,41.0,43,29.92,10.0,East,5.8,-,N/A,,Clear,80,2013-10-14 11:51:00
5:51 AM,63.0,41.0,45,29.94,10.0,East,6.9,-,N/A,,Clear,90,2013-10-14 12:51:00
6:51 AM,62.1,39.9,44,29.96,10.0,East,4.6,-,N/A,,Clear,90,2013-10-14 13:51:00
7:51 AM,64.9,41.0,42,29.98,10.0,East,5.8,-,N/A,,Clear,90,2013-10-14 14:51:00
8:51 AM,70.0,43.0,38,29.98,10.0,ESE,4.6,-,N/A,,Clear,120,2013-10-14 15:51:00
9:51 AM,73.9,45.0,35,29.99,10.0,East,3.5,-,N/A,,Partly Cloudy,80,2013-10-14 16:51:00
10:51 AM,78.1,42.1,28,29.96,10.0,SSE,3.5,-,N/A,,Partly Cloudy,150,2013-10-14 17:51:00
11:51 AM,78.1,39.9,25,29.95,10.0,WNW,4.6,-,N/A,,Partly Cloudy,300,2013-10-14 18:51:00
12:51 PM,81.0,32.0,17,29.92,10.0,Variable,6.9,-,N/A,,Partly Cloudy,0,2013-10-14 19:51:00
1:51 PM,82.0,28.9,14,29.89,10.0,NNW,5.8,-,N/A,,Partly Cloudy,330,2013-10-14 20:51:00
2:51 PM,82.9,28.0,14,29.88,10.0,NW,4.6,-,N/A,,Clear,310,2013-10-14 21:51:00
3:51 PM,82.9,27.0,13,29.87,10.0,WNW,8.1,-,N/A,,Clear,290,2013-10-14 22:51:00
4:51 PM,82.0,28.0,14,29.86,10.0,SSW,8.1,-,N/A,,Clear,210,2013-10-14 23:51:00
5:51 PM,81.0,28.9,15,29.86,10.0,SW,4.6,-,N/A,,Clear,230,2013-10-15 00:51:00
6:51 PM,78.1,32.0,19,29.88,10.0,WSW,4.6,-,N/A,,Clear,250,2013-10-15 01:51:00
7:51 PM,75.9,33.1,21,29.88,10.0,WSW,4.6,-,N/A,,Clear,240,2013-10-15 02:51:00
8:51 PM,77.0,32.0,19,29.88,10.0,North,5.8,-,N/A,,Clear,350,2013-10-15 03:51:00
9:51 PM,73.9,34.0,23,29.88,10.0,WNW,3.5,-,N/A,,Clear,290,2013-10-15 04:51:00
10:51 PM,70.0,34.0,27,29.88,10.0,WSW,3.5,-,N/A,,Clear,250,2013-10-15 05:51:00
11:51 PM,66.9,33.1,28,29.88,10.0,SW,6.9,-,N/A,,Clear,230,2013-10-15 06:51:00